This is the latest recevied weather packets stored in our database for station/object N3FAA. If no packets are shown the sender has not sent any weather packets the latest 10 day(s).
| Time | Temp. | Humidity | Pressure | Rain* | Wind** | Luminosity | Snow |
|---|---|---|---|---|---|---|---|
| 1777519010 | 16.67° C | 49% | 1011.6 hPa | 0 mm | - | 0 W/m² | - |
| 1777518706 | 17.22° C | 48% | 1011.4 hPa | 0 mm | - | 0 W/m² | - |
| 1777518403 | 17.22° C | 49% | 1011.5 hPa | 0 mm | - | 0 W/m² | - |
| 1777518098 | 17.22° C | 49% | 1011.5 hPa | 0 mm | - | 0 W/m² | - |
| 1777517795 | 17.22° C | 49% | 1011.4 hPa | 0 mm | - | 0 W/m² | - |
| 1777517491 | 17.78° C | 48% | 1011.5 hPa | 0 mm | - | 0 W/m² | - |
| 1777517189 | 17.78° C | 48% | 1011.3 hPa | 0 mm | - | 0 W/m² | - |
| 1777516887 | 17.78° C | 48% | 1011.1 hPa | 0 mm | - | 1 W/m² | - |
| 1777516584 | 18.33° C | 48% | 1011 hPa | 0 mm | - | 3 W/m² | - |
| 1777516280 | 18.33° C | 47% | 1010.9 hPa | 0 mm | - | 5 W/m² | - |
| 1777515976 | 18.89° C | 47% | 1010.9 hPa | 0 mm | - | 9 W/m² | - |
| 1777515673 | 18.89° C | 46% | 1011.1 hPa | 0 mm | - | 12 W/m² | - |
| 1777515370 | 19.44° C | 45% | 1010.8 hPa | 0 mm | - | 19 W/m² | - |
| 1777515066 | 19.44° C | 44% | 1010.9 hPa | 0 mm | - | 23 W/m² | - |
| 1777514763 | 20° C | 44% | 1010.9 hPa | 0 mm | - | 29 W/m² | - |
| 1777514460 | 20° C | 43% | 1010.7 hPa | 0 mm | - | 33 W/m² | - |
| 1777514156 | 20° C | 43% | 1010.6 hPa | 0 mm | - | 39 W/m² | - |
| 1777513854 | 20° C | 43% | 1010.6 hPa | 0 mm | - | 44 W/m² | - |
| 1777513550 | 20.56° C | 43% | 1010.7 hPa | 0 mm | - | 55 W/m² | - |
| 1777513247 | 21.11° C | 42% | 1010.6 hPa | 0 mm | - | 62 W/m² | - |
| 1777512943 | 21.11° C | 41% | 1010.5 hPa | 0 mm | - | 47 W/m² | - |
| 1777512640 | 21.11° C | 41% | 1010.6 hPa | 0 mm | - | 98 W/m² | - |
| 1777512337 | 21.67° C | 41% | 1010.6 hPa | 0 mm | - | 115 W/m² | - |
| 1777512033 | 22.22° C | 40% | 1010.6 hPa | 0 mm | - | 125 W/m² | - |
| 1777511732 | 22.22° C | 39% | 1010.5 hPa | 0 mm | - | 142 W/m² | - |
* Rain latest hour (hover to see other rain measurements)
** Current wind speed in m/s (hover to see current wind gust speed)